contact:dominique.lefevre@mio.osupytheas.fr, maurice.libes@osupytheas.fr, didier.mallarino@osupytheas.fr
Project:EMSO http://www.emso-fr.org/EMSO-France
Depth: 2436.0 m
Title:EMSO Ligure Ouest : Data MII capteur AQUADOPP
Date,Latitude,Longitude,X_East,Y_North,Z_Up,Amplitude_X,Amplitude_Y,Amplitude_Z,Batterie,SoundSpeed,Heading,Pitch,Roll,Pressure,TIS,Speed,Direction
, degrees North, degrees East, m.s-1, m.s-1,m.s-1, 1, 1, 1, Volt, m.s-1, degree, degree, degree, dbar, degree_C, m.s-1, degree
2020-02-10T00:04:03,42.805,6.029,-0.004,0.002,-0.025,106.0,107.0,101.0,13.4,1505.3,325.9,-0.8,1.8,2470.249,13.31,0.004,296.6
2020-02-10T00:07:03,42.805,6.029,0.023,-0.02,0.004,103.0,107.0,102.0,13.4,1505.3,327.2,-0.7,1.8,2470.266,13.31,0.03,131.0
2020-02-10T00:10:03,42.805,6.029,0.037,0.005,0.003,105.0,106.0,101.0,13.4,1505.3,327.4,-0.7,1.8,2470.186,13.32,0.037,82.3
2020-02-10T00:13:03,42.805,6.029,0.016,-0.006,0.004,104.0,107.0,102.0,13.3,1505.3,323.1,-0.7,1.8,2470.236,13.32,0.017,110.6
2020-02-10T00:16:03,42.805,6.029,0.024,-0.009,-0.021,104.0,107.0,101.0,13.4,1505.3,326.6,-0.7,1.8,2470.212,13.32,0.025,110.6
2020-02-10T00:19:03,42.805,6.029,0.033,-0.005,0.017,103.0,107.0,102.0,13.4,1505.3,326.3,-0.7,1.8,2470.173,13.32,0.033,98.6
2020-02-10T00:22:03,42.805,6.029,0.027,-0.009,-0.04,103.0,106.0,102.0,13.4,1505.3,328.0,-0.8,1.8,2470.223,13.33,0.028,108.4
2020-02-10T00:25:03,42.805,6.029,0.042,0.0,0.005,104.0,108.0,101.0,13.4,1505.3,323.6,-0.7,1.8,2470.241,13.33,0.042,90.0
2020-02-10T00:28:03,42.805,6.029,0.009,-0.019,-0.032,106.0,107.0,102.0,13.3,1505.3,326.4,-0.7,1.8,2470.201,13.33,0.021,154.7
2020-02-10T00:31:03,42.805,6.029,0.051,-0.015,0.042,103.0,106.0,102.0,13.4,1505.3,325.7,-0.7,1.8,2470.206,13.33,0.053,106.4
2020-02-10T00:34:03,42.805,6.029,0.024,-0.022,0.009,102.0,107.0,100.0,13.4,1505.3,326.1,-0.7,1.8,2470.261,13.33,0.032,132.5
2020-02-10T00:37:03,42.805,6.029,0.04,-0.017,-0.008,103.0,106.0,102.0,13.4,1505.3,325.7,-0.7,1.8,2470.18,13.33,0.043,113.0
2020-02-10T00:40:03,42.805,6.029,0.014,-0.006,-0.021,103.0,107.0,103.0,13.4,1505.3,323.2,-0.7,1.8,2470.193,13.33,0.015,113.2
2020-02-10T00:43:03,42.805,6.029,0.017,0.003,-0.016,104.0,108.0,99.0,13.4,1505.3,326.4,-0.7,1.8,2470.205,13.33,0.017,80.0
2020-02-10T00:46:03,42.805,6.029,-0.002,-0.014,-0.04,103.0,107.0,102.0,13.4,1505.3,326.1,-0.7,1.8,2470.178,13.33,0.014,188.1
2020-02-10T00:49:03,42.805,6.029,0.032,-0.024,0.002,102.0,107.0,101.0,13.4,1505.3,324.6,-0.7,1.8,2470.198,13.33,0.04,126.9
2020-02-10T00:52:03,42.805,6.029,0.039,-0.012,0.021,104.0,106.0,101.0,13.3,1505.3,326.5,-0.7,1.8,2470.18,13.33,0.04,107.1
2020-02-10T00:55:03,42.805,6.029,0.059,-0.015,0.032,102.0,106.0,100.0,13.4,1505.3,323.9,-0.7,1.8,2470.185,13.33,0.06,104.3
2020-02-10T00:58:03,42.805,6.029,0.057,-0.024,-0.012,102.0,106.0,99.0,13.4,1505.3,327.9,-0.7,1.8,2470.199,13.33,0.061,112.8
2020-02-10T01:04:03,42.805,6.029,0.031,0.006,-0.006,105.0,108.0,101.0,13.4,1505.3,324.5,-0.7,1.8,2470.28,13.31,0.031,79.0
2020-02-10T01:07:03,42.805,6.029,0.035,0.001,-0.002,103.0,106.0,100.0,13.4,1505.3,325.4,-0.7,1.9,2470.161,13.31,0.035,88.4
2020-02-10T01:10:03,42.805,6.029,0.045,-0.025,0.005,103.0,105.0,100.0,13.4,1505.3,326.0,-0.7,1.8,2470.233,13.32,0.051,119.1
2020-02-10T01:13:03,42.805,6.029,0.014,-0.008,-0.009,104.0,107.0,100.0,13.4,1505.3,323.4,-0.7,1.8,2470.217,13.32,0.016,119.7
2020-02-10T01:16:03,42.805,6.029,0.016,-0.02,0.026,105.0,107.0,101.0,13.4,1505.3,328.2,-0.7,1.8,2470.149,13.32,0.025,141.3
2020-02-10T01:19:03,42.805,6.029,0.028,-0.016,-0.035,104.0,107.0,102.0,13.4,1505.3,325.6,-0.7,1.8,2470.169,13.33,0.032,119.7
2020-02-10T01:22:03,42.805,6.029,0.0,-0.029,-0.032,104.0,106.0,101.0,13.3,1505.3,326.0,-0.7,1.8,2470.192,13.33,0.028,180.0
2020-02-10T01:25:03,42.805,6.029,0.046,-0.02,-0.003,104.0,106.0,102.0,13.4,1505.3,325.8,-0.7,1.8,2470.184,13.33,0.05,113.5
2020-02-10T01:28:03,42.805,6.029,0.053,-0.01,0.015,104.0,105.0,100.0,13.4,1505.3,326.5,-0.7,1.8,2470.202,13.33,0.053,100.7
2020-02-10T01:31:03,42.805,6.029,0.019,0.0,0.005,103.0,104.0,101.0,13.4,1505.3,325.5,-0.7,1.8,2470.159,13.33,0.019,90.0
2020-02-10T01:34:03,42.805,6.029,-0.006,-0.012,-0.061,104.0,106.0,101.0,13.4,1505.3,325.4,-0.7,1.8,2470.174,13.33,0.013,206.6
2020-02-10T01:37:03,42.805,6.029,0.001,-0.003,0.013,103.0,105.0,101.0,13.3,1505.3,326.0,-0.7,1.8,2470.178,13.33,0.003,161.6
2020-02-10T01:40:03,42.805,6.029,0.016,-0.019,-0.014,103.0,105.0,102.0,13.3,1505.3,324.7,-0.7,1.8,2470.168,13.33,0.024,139.9
2020-02-10T01:43:03,42.805,6.029,0.005,-0.004,-0.035,103.0,105.0,101.0,13.4,1505.3,325.4,-0.7,1.8,2470.139,13.33,0.006,128.7
2020-02-10T01:46:03,42.805,6.029,0.044,-0.007,0.003,104.0,105.0,100.0,13.3,1505.3,323.5,-0.7,1.8,2470.179,13.33,0.044,99.0
2020-02-10T01:49:03,42.805,6.029,0.014,-0.006,-0.036,105.0,105.0,100.0,13.4,1505.3,326.4,-0.7,1.8,2470.171,13.33,0.015,113.2
2020-02-10T01:52:03,42.805,6.029,0.017,-0.015,-0.029,103.0,104.0,101.0,13.4,1505.3,326.4,-0.7,1.8,2470.174,13.33,0.022,131.4
2020-02-10T01:55:03,42.805,6.029,0.03,-0.007,-0.017,104.0,105.0,101.0,13.4,1505.3,327.3,-0.7,1.8,2470.156,13.33,0.03,103.1
2020-02-10T01:58:03,42.805,6.029,0.013,-0.013,-0.025,102.0,106.0,101.0,13.4,1505.3,326.7,-0.7,1.8,2470.213,13.33,0.018,135.0
2020-02-10T02:04:03,42.805,6.029,0.016,-0.009,-0.012,103.0,104.0,101.0,13.3,1505.3,326.5,-0.7,1.8,2470.207,13.31,0.018,119.4
2020-02-10T02:07:03,42.805,6.029,0.001,-0.006,-0.046,105.0,106.0,101.0,13.4,1505.3,326.0,-0.7,1.8,2470.175,13.31,0.006,170.5
2020-02-10T02:10:03,42.805,6.029,0.023,-0.001,0.005,105.0,105.0,100.0,13.3,1505.3,327.2,-0.7,1.8,2470.149,13.32,0.023,92.5
2020-02-10T02:13:03,42.805,6.029,0.012,-0.013,-0.018,104.0,106.0,101.0,13.4,1505.3,328.1,-0.7,1.8,2470.194,13.32,0.017,137.3
2020-02-10T02:16:03,42.805,6.029,0.027,-0.033,-0.047,105.0,106.0,102.0,13.3,1505.3,323.1,-0.7,1.9,2470.165,13.32,0.042,140.7
2020-02-10T02:19:03,42.805,6.029,0.024,-0.021,-0.024,106.0,108.0,100.0,13.3,1505.3,326.1,-0.7,1.8,2470.172,13.32,0.031,131.2
2020-02-10T02:22:03,42.805,6.029,-0.007,-0.003,-0.031,103.0,106.0,101.0,13.4,1505.3,327.1,-0.7,1.9,2470.181,13.33,0.007,246.8
2020-02-10T02:25:03,42.805,6.029,0.008,-0.015,-0.039,105.0,106.0,100.0,13.4,1505.3,325.1,-0.7,1.9,2470.123,13.33,0.017,151.9
2020-02-10T02:28:03,42.805,6.029,0.041,-0.015,-0.007,104.0,105.0,101.0,13.4,1505.3,326.4,-0.7,1.8,2470.133,13.33,0.043,110.1
2020-02-10T02:31:03,42.805,6.029,-0.007,-0.014,-0.011,102.0,104.0,101.0,13.4,1505.3,328.6,-0.7,1.8,2470.169,13.33,0.015,206.6
2020-02-10T02:34:03,42.805,6.029,0.027,0.007,-0.03,103.0,104.0,101.0,13.3,1505.3,323.0,-0.7,1.8,2470.172,13.33,0.027,75.5
2020-02-10T02:37:03,42.805,6.029,0.03,-0.001,0.014,104.0,106.0,102.0,13.4,1505.3,325.1,-0.7,1.8,2470.144,13.33,0.03,91.9
2020-02-10T02:40:03,42.805,6.029,0.029,-0.023,-0.005,105.0,106.0,102.0,13.4,1505.3,324.9,-0.7,1.8,2470.17,13.33,0.037,128.4
2020-02-10T02:43:03,42.805,6.029,0.013,-0.021,-0.001,104.0,106.0,102.0,13.3,1505.3,327.8,-0.7,1.9,2470.133,13.33,0.024,148.2
2020-02-10T02:46:03,42.805,6.029,0.008,-0.008,0.0,102.0,104.0,102.0,13.4,1505.3,327.0,-0.7,1.8,2470.122,13.33,0.011,135.0
2020-02-10T02:49:03,42.805,6.029,-0.022,-0.018,-0.04,105.0,106.0,101.0,13.4,1505.3,327.9,-0.7,1.8,2470.151,13.33,0.028,230.7
2020-02-10T02:52:03,42.805,6.029,0.035,-0.018,-0.003,104.0,105.0,101.0,13.4,1505.3,327.2,-0.7,1.8,2470.16,13.33,0.039,117.2
2020-02-10T02:55:03,42.805,6.029,-0.009,-0.004,-0.013,103.0,104.0,101.0,13.3,1505.3,326.0,-0.7,1.9,2470.162,13.33,0.009,246.0
2020-02-10T02:58:03,42.805,6.029,-0.004,-0.019,-0.017,102.0,104.0,100.0,13.3,1505.3,327.8,-0.7,1.8,2470.155,13.33,0.019,191.9
2020-02-10T03:04:03,42.805,6.029,0.034,-0.002,0.005,103.0,105.0,100.0,13.3,1505.3,325.9,-0.7,1.8,2470.183,13.31,0.034,93.4
2020-02-10T03:07:03,42.805,6.029,0.056,-0.011,0.023,106.0,103.0,101.0,13.4,1505.3,322.9,-0.7,1.8,2470.173,13.31,0.057,101.1
2020-02-10T03:10:03,42.805,6.029,0.025,-0.028,-0.016,103.0,104.0,100.0,13.4,1505.3,326.2,-0.7,1.9,2470.196,13.32,0.037,138.2
2020-02-10T03:13:03,42.805,6.029,0.038,-0.02,-0.013,102.0,106.0,102.0,13.4,1505.3,327.9,-0.7,1.8,2470.179,13.32,0.042,117.8
2020-02-10T03:16:03,42.805,6.029,0.025,-0.017,-0.004,102.0,108.0,101.0,13.4,1505.3,326.5,-0.7,1.8,2470.237,13.32,0.03,124.2
2020-02-10T03:19:03,42.805,6.029,0.013,-0.003,-0.02,103.0,105.0,101.0,13.4,1505.3,326.2,-0.7,1.8,2470.165,13.32,0.013,103.0
2020-02-10T03:22:03,42.805,6.029,0.047,-0.009,0.01,103.0,105.0,99.0,13.4,1505.3,326.2,-0.7,1.8,2470.184,13.33,0.047,100.8
2020-02-10T03:25:03,42.805,6.029,0.019,-0.004,-0.001,102.0,106.0,102.0,13.4,1505.3,324.0,-0.7,1.8,2470.238,13.33,0.019,101.9
2020-02-10T03:28:03,42.805,6.029,-0.016,-0.012,-0.024,105.0,104.0,100.0,13.4,1505.3,326.0,-0.7,1.8,2470.217,13.33,0.02,233.1
2020-02-10T03:31:03,42.805,6.029,-0.008,-0.014,-0.06,102.0,106.0,101.0,13.3,1505.3,323.4,-0.7,1.9,2470.202,13.33,0.016,209.7
2020-02-10T03:34:03,42.805,6.029,0.036,-0.012,-0.021,103.0,105.0,102.0,13.4,1505.3,328.2,-0.7,1.8,2470.162,13.33,0.037,108.4
2020-02-10T03:37:03,42.805,6.029,0.036,-0.01,-0.024,103.0,105.0,101.0,13.3,1505.3,325.7,-0.7,1.8,2470.205,13.33,0.037,105.5
2020-02-10T03:40:03,42.805,6.029,0.026,-0.025,0.011,105.0,106.0,100.0,13.4,1505.3,324.5,-0.7,1.9,2470.211,13.33,0.036,133.9
2020-02-10T03:43:03,42.805,6.029,0.016,-0.016,0.006,104.0,105.0,100.0,13.4,1505.3,324.6,-0.7,1.8,2470.215,13.33,0.022,135.0
2020-02-10T03:46:03,42.805,6.029,0.002,-0.011,-0.045,104.0,106.0,102.0,13.4,1505.3,323.5,-0.7,1.8,2470.21,13.33,0.011,169.7
2020-02-10T03:49:03,42.805,6.029,0.024,0.0,-0.025,104.0,103.0,101.0,13.4,1505.3,327.1,-0.7,1.8,2470.176,13.33,0.024,90.0
2020-02-10T03:52:03,42.805,6.029,0.039,-0.008,-0.007,105.0,107.0,102.0,13.4,1505.3,327.2,-0.7,1.8,2470.202,13.33,0.039,101.6
2020-02-10T03:55:03,42.805,6.029,0.021,-0.021,-0.003,103.0,105.0,102.0,13.4,1505.3,323.0,-0.7,1.8,2470.222,13.33,0.029,135.0
2020-02-10T03:58:03,42.805,6.029,0.005,-0.007,-0.031,103.0,105.0,101.0,13.4,1505.3,324.1,-0.7,1.8,2470.154,13.33,0.008,144.5
2020-02-10T04:04:03,42.805,6.029,0.024,-0.016,-0.017,103.0,105.0,100.0,13.4,1505.3,326.2,-0.7,1.8,2470.239,13.31,0.028,123.7
2020-02-10T04:07:03,42.805,6.029,0.016,-0.033,-0.033,102.0,104.0,103.0,13.4,1505.3,327.2,-0.7,1.9,2470.295,13.31,0.036,154.1
2020-02-10T04:10:03,42.805,6.029,0.004,-0.012,-0.042,103.0,105.0,100.0,13.3,1505.3,327.1,-0.8,1.8,2470.256,13.32,0.012,161.6
2020-02-10T04:13:03,42.805,6.029,0.004,-0.022,-0.047,103.0,104.0,100.0,13.4,1505.3,325.5,-0.7,1.8,2470.251,13.32,0.022,169.7
2020-02-10T04:16:03,42.805,6.029,0.02,-0.021,-0.029,104.0,105.0,101.0,13.4,1505.3,327.3,-0.7,1.8,2470.243,13.32,0.028,136.4
2020-02-10T04:19:03,42.805,6.029,0.006,-0.019,-0.053,105.0,105.0,101.0,13.4,1505.3,324.7,-0.7,1.8,2470.22,13.32,0.019,162.5
2020-02-10T04:22:03,42.805,6.029,0.033,-0.02,-0.018,104.0,105.0,100.0,13.4,1505.3,323.5,-0.7,1.8,2470.255,13.32,0.038,121.2
2020-02-10T04:25:03,42.805,6.029,0.024,0.002,-0.014,104.0,106.0,99.0,13.4,1505.3,328.3,-0.7,1.8,2470.259,13.33,0.024,85.2
2020-02-10T04:28:03,42.805,6.029,0.031,-0.003,-0.032,104.0,106.0,101.0,13.4,1505.3,325.0,-0.7,1.8,2470.268,13.33,0.031,95.5
2020-02-10T04:31:03,42.805,6.029,0.017,-0.028,-0.024,104.0,105.0,101.0,13.4,1505.3,323.1,-0.7,1.9,2470.228,13.33,0.032,148.7
2020-02-10T04:34:03,42.805,6.029,0.042,0.001,0.006,104.0,106.0,102.0,13.4,1505.3,324.7,-0.7,1.8,2470.256,13.33,0.042,88.6
2020-02-10T04:37:03,42.805,6.029,0.02,-0.019,-0.015,103.0,105.0,101.0,13.3,1505.3,326.1,-0.7,1.8,2470.273,13.33,0.027,133.5
2020-02-10T04:40:03,42.805,6.029,0.009,-0.004,-0.007,105.0,105.0,100.0,13.3,1505.3,323.7,-0.7,1.9,2470.244,13.33,0.009,114.0
2020-02-10T04:43:03,42.805,6.029,0.025,-0.012,-0.021,103.0,104.0,102.0,13.4,1505.3,324.6,-0.7,1.8,2470.242,13.33,0.027,115.6
2020-02-10T04:46:03,42.805,6.029,-0.003,0.006,-0.051,106.0,104.0,100.0,13.4,1505.3,324.0,-0.7,1.8,2470.265,13.33,0.006,333.4
2020-02-10T04:49:03,42.805,6.029,0.023,-0.001,-0.029,104.0,104.0,101.0,13.3,1505.3,327.2,-0.7,1.8,2470.24,13.33,0.023,92.5
2020-02-10T04:52:03,42.805,6.029,0.062,0.005,0.027,103.0,106.0,101.0,13.3,1505.3,324.7,-0.7,1.8,2470.271,13.33,0.062,85.4
2020-02-10T04:55:03,42.805,6.029,0.008,-0.018,0.01,106.0,106.0,102.0,13.4,1505.3,326.8,-0.7,1.8,2470.249,13.33,0.019,156.0
2020-02-10T04:58:03,42.805,6.029,0.003,0.008,-0.026,104.0,106.0,100.0,13.3,1505.3,325.4,-0.7,1.8,2470.297,13.33,0.008,20.6
2020-02-10T05:04:03,42.805,6.029,0.039,-0.038,0.003,106.0,106.0,101.0,13.3,1505.3,326.3,-0.7,1.9,2470.284,13.31,0.054,134.3
2020-02-10T05:07:03,42.805,6.029,0.009,-0.005,-0.019,104.0,105.0,101.0,13.4,1505.3,328.0,-0.7,1.8,2470.31,13.31,0.01,119.1
2020-02-10T05:10:03,42.805,6.029,0.013,-0.029,0.001,104.0,105.0,101.0,13.4,1505.3,324.0,-0.7,1.8,2470.333,13.32,0.031,155.9
2020-02-10T05:13:03,42.805,6.029,0.009,-0.021,0.015,104.0,105.0,101.0,13.3,1505.3,325.6,-0.7,1.8,2470.323,13.32,0.022,156.8
2020-02-10T05:16:03,42.805,6.029,0.022,-0.003,-0.016,103.0,105.0,101.0,13.4,1505.3,325.0,-0.7,1.8,2470.327,13.32,0.022,97.8
2020-02-10T05:19:03,42.805,6.029,0.024,-0.011,0.0,104.0,105.0,101.0,13.4,1505.3,325.5,-0.7,1.8,2470.332,13.32,0.026,114.6
2020-02-10T05:22:03,42.805,6.029,-0.005,0.002,-0.046,104.0,103.0,101.0,13.4,1505.3,326.3,-0.7,1.9,2470.287,13.32,0.005,291.8
2020-02-10T05:25:03,42.805,6.029,0.005,-0.009,-0.024,105.0,105.0,102.0,13.3,1505.3,324.5,-0.7,1.9,2470.307,13.32,0.01,150.9
2020-02-10T05:28:03,42.805,6.029,0.01,-0.018,-0.007,103.0,106.0,101.0,13.3,1505.3,328.6,-0.7,1.8,2470.351,13.33,0.02,150.9
2020-02-10T05:31:03,42.805,6.029,-0.003,0.002,-0.018,104.0,106.0,101.0,13.3,1505.3,326.2,-0.7,1.8,2470.321,13.33,0.003,303.7
2020-02-10T05:34:03,42.805,6.029,0.021,-0.007,0.0,105.0,105.0,101.0,13.4,1505.3,323.0,-0.7,1.8,2470.334,13.33,0.022,108.4
2020-02-10T05:37:03,42.805,6.029,0.023,-0.017,0.002,103.0,104.0,100.0,13.4,1505.3,323.5,-0.7,1.8,2470.316,13.33,0.028,126.5
2020-02-10T05:40:03,42.805,6.029,-0.002,-0.018,-0.024,106.0,106.0,101.0,13.4,1505.3,326.4,-0.7,1.8,2470.344,13.33,0.018,186.3
2020-02-10T05:43:03,42.805,6.029,0.002,-0.014,-0.003,105.0,104.0,101.0,13.4,1505.3,327.8,-0.7,1.8,2470.325,13.33,0.014,171.9
2020-02-10T05:46:03,42.805,6.029,0.0,-0.022,-0.019,103.0,105.0,101.0,13.4,1505.3,325.9,-0.7,1.8,2470.375,13.33,0.022,180.0
2020-02-10T05:49:03,42.805,6.029,0.019,-0.003,-0.009,104.0,105.0,100.0,13.4,1505.3,325.6,-0.7,1.9,2470.361,13.33,0.019,99.0
2020-02-10T05:52:03,42.805,6.029,0.025,-0.015,-0.008,104.0,105.0,101.0,13.4,1505.3,326.1,-0.7,1.8,2470.336,13.33,0.029,121.0
2020-02-10T05:55:03,42.805,6.029,0.004,-0.017,-0.016,103.0,104.0,101.0,13.4,1505.3,326.7,-0.7,1.8,2470.356,13.33,0.017,166.8
2020-02-10T05:58:03,42.805,6.029,0.021,-0.021,-0.039,102.0,103.0,102.0,13.4,1505.3,324.0,-0.7,1.9,2470.352,13.33,0.029,135.0
2020-02-10T06:04:03,42.805,6.029,0.018,-0.015,-0.015,104.0,105.0,101.0,13.4,1505.3,326.2,-0.7,1.8,2470.398,13.31,0.023,129.8
2020-02-10T06:07:03,42.805,6.029,0.04,-0.015,0.029,105.0,106.0,102.0,13.4,1505.3,323.3,-0.7,1.8,2470.375,13.31,0.042,110.6
2020-02-10T06:10:03,42.805,6.029,0.006,-0.023,-0.053,104.0,104.0,101.0,13.4,1505.3,327.3,-0.7,1.8,2470.409,13.32,0.023,165.4
2020-02-10T06:13:03,42.805,6.029,0.003,-0.002,0.004,104.0,103.0,102.0,13.4,1505.3,327.6,-0.7,1.8,2470.385,13.32,0.003,123.7
2020-02-10T06:16:03,42.805,6.029,0.007,-0.008,-0.04,104.0,105.0,101.0,13.4,1505.3,324.5,-0.7,1.8,2470.411,13.32,0.01,138.8
2020-02-10T06:19:03,42.805,6.029,0.001,-0.018,-0.021,103.0,104.0,101.0,13.4,1505.3,326.0,-0.7,1.8,2470.435,13.32,0.018,176.8
2020-02-10T06:22:03,42.805,6.029,0.016,-0.015,-0.058,104.0,105.0,100.0,13.4,1505.3,323.1,-0.7,1.8,2470.398,13.32,0.021,133.1
2020-02-10T06:25:03,42.805,6.029,-0.009,-0.014,-0.043,104.0,104.0,100.0,13.4,1505.3,326.0,-0.7,1.8,2470.388,13.32,0.016,212.7
2020-02-10T06:28:03,42.805,6.029,0.01,-0.017,-0.005,104.0,105.0,102.0,13.3,1505.3,328.4,-0.7,1.8,2470.376,13.33,0.019,149.5
2020-02-10T06:31:03,42.805,6.029,0.038,-0.029,0.011,103.0,105.0,102.0,13.4,1505.3,328.1,-0.7,1.8,2470.405,13.33,0.047,127.3
2020-02-10T06:34:03,42.805,6.029,0.031,-0.015,0.001,104.0,106.0,102.0,13.4,1505.3,325.6,-0.7,1.8,2470.471,13.33,0.034,115.8
2020-02-10T06:37:03,42.805,6.029,0.019,-0.014,-0.003,103.0,105.0,102.0,13.4,1505.3,323.5,-0.7,1.8,2470.408,13.33,0.023,126.4
2020-02-10T06:40:03,42.805,6.029,0.039,-0.007,-0.003,105.0,106.0,100.0,13.3,1505.3,327.9,-0.7,1.8,2470.461,13.33,0.039,100.2
2020-02-10T06:43:03,42.805,6.029,0.017,-0.029,-0.012,104.0,106.0,100.0,13.4,1505.3,324.7,-0.7,1.8,2470.448,13.33,0.033,149.6
2020-02-10T06:46:03,42.805,6.029,0.005,-0.004,-0.005,102.0,106.0,101.0,13.3,1505.3,327.0,-0.7,1.8,2470.395,13.33,0.006,128.7
2020-02-10T06:49:03,42.805,6.029,-0.022,-0.027,-0.034,102.0,104.0,101.0,13.4,1505.3,323.6,-0.7,1.8,2470.407,13.33,0.034,219.2
2020-02-10T06:52:03,42.805,6.029,0.026,-0.014,-0.009,105.0,106.0,101.0,13.3,1505.3,325.2,-0.7,1.9,2470.407,13.33,0.029,118.3
2020-02-10T06:55:03,42.805,6.029,0.015,-0.023,-0.019,105.0,105.0,101.0,13.4,1505.3,328.2,-0.7,1.8,2470.401,13.33,0.027,146.9
2020-02-10T06:58:03,42.805,6.029,0.039,-0.025,-0.013,104.0,106.0,101.0,13.4,1505.3,324.4,-0.7,1.8,2470.455,13.33,0.046,122.7
2020-02-10T07:04:03,42.805,6.029,0.01,0.006,-0.043,104.0,106.0,101.0,13.4,1505.3,327.7,-0.8,1.9,2470.465,13.31,0.011,59.0
2020-02-10T07:07:03,42.805,6.029,0.029,-0.009,-0.024,104.0,105.0,103.0,13.3,1505.3,325.2,-0.7,1.9,2470.436,13.31,0.03,107.2
2020-02-10T07:10:03,42.805,6.029,0.006,0.0,-0.022,104.0,105.0,101.0,13.4,1505.3,323.3,-0.7,1.8,2470.462,13.32,0.006,90.0
2020-02-10T07:13:03,42.805,6.029,0.02,-0.012,-0.049,103.0,105.0,102.0,13.4,1505.3,327.6,-0.7,1.8,2470.441,13.32,0.023,121.0
2020-02-10T07:16:03,42.805,6.029,0.012,-0.015,0.01,105.0,104.0,100.0,13.3,1505.3,325.6,-0.7,1.8,2470.446,13.32,0.019,141.3
2020-02-10T07:19:03,42.805,6.029,0.012,-0.005,0.003,104.0,105.0,101.0,13.3,1505.3,327.8,-0.7,1.9,2470.442,13.32,0.013,112.6
2020-02-10T07:22:03,42.805,6.029,0.037,-0.043,0.005,104.0,106.0,101.0,13.4,1505.3,325.6,-0.7,1.8,2470.483,13.32,0.056,139.3
2020-02-10T07:25:03,42.805,6.029,0.042,0.001,-0.031,104.0,106.0,101.0,13.3,1505.3,327.5,-0.7,1.8,2470.459,13.32,0.042,88.6
2020-02-10T07:28:03,42.805,6.029,0.036,0.0,0.009,103.0,106.0,101.0,13.4,1505.3,326.0,-0.7,1.9,2470.448,13.33,0.036,90.0
2020-02-10T07:31:03,42.805,6.029,0.029,0.007,0.027,104.0,105.0,102.0,13.3,1505.3,327.6,-0.7,1.8,2470.422,13.33,0.029,76.4
2020-02-10T07:34:03,42.805,6.029,0.016,-0.004,-0.025,103.0,106.0,101.0,13.3,1505.3,325.1,-0.7,1.8,2470.476,13.33,0.016,104.0
2020-02-10T07:37:03,42.805,6.029,-0.007,-0.014,-0.037,102.0,105.0,101.0,13.4,1505.3,326.6,-0.7,1.8,2470.437,13.33,0.015,206.6
2020-02-10T07:40:03,42.805,6.029,0.043,-0.01,-0.003,103.0,103.0,101.0,13.4,1505.3,328.2,-0.7,1.8,2470.429,13.32,0.044,103.1
2020-02-10T07:43:03,42.805,6.029,-0.007,-0.009,0.003,103.0,104.0,101.0,13.3,1505.3,325.5,-0.7,1.8,2470.479,13.32,0.011,217.9
2020-02-10T07:46:03,42.805,6.029,0.015,-0.015,-0.033,104.0,103.0,100.0,13.4,1505.3,327.8,-0.7,1.8,2470.491,13.32,0.021,135.0
2020-02-10T07:49:03,42.805,6.029,0.052,-0.031,0.012,104.0,105.0,102.0,13.4,1505.3,326.0,-0.7,1.8,2470.462,13.32,0.06,120.8
2020-02-10T07:52:03,42.805,6.029,0.034,-0.018,-0.005,104.0,107.0,100.0,13.4,1505.3,327.3,-0.7,1.8,2470.475,13.32,0.038,117.9
2020-02-10T07:55:03,42.805,6.029,0.008,-0.023,-0.007,105.0,103.0,102.0,13.4,1505.3,327.7,-0.7,1.8,2470.458,13.32,0.024,160.8
2020-02-10T07:58:03,42.805,6.029,0.025,-0.025,-0.009,106.0,104.0,101.0,13.4,1505.3,325.7,-0.7,1.8,2470.437,13.32,0.035,135.0
2020-02-10T08:04:03,42.805,6.029,0.014,-0.012,-0.007,103.0,108.0,101.0,13.4,1505.2,324.8,-0.8,1.9,2470.496,13.3,0.018,130.6
2020-02-10T08:07:03,42.805,6.029,0.0,-0.02,-0.029,105.0,106.0,101.0,13.4,1505.3,323.2,-0.7,1.8,2470.484,13.31,0.02,180.0
2020-02-10T08:10:03,42.805,6.029,0.023,-0.02,-0.035,105.0,106.0,100.0,13.3,1505.3,328.0,-0.8,1.8,2470.469,13.32,0.03,131.0
2020-02-10T08:13:03,42.805,6.029,0.042,-0.039,-0.013,104.0,106.0,101.0,13.3,1505.3,325.7,-0.7,1.8,2470.474,13.32,0.057,132.9
2020-02-10T08:16:03,42.805,6.029,0.025,-0.021,-0.019,102.0,106.0,101.0,13.3,1505.3,327.0,-0.7,1.8,2470.445,13.32,0.032,130.0
2020-02-10T08:19:03,42.805,6.029,0.021,-0.019,-0.013,103.0,106.0,101.0,13.4,1505.3,325.7,-0.7,1.8,2470.477,13.32,0.028,132.1
2020-02-10T08:22:03,42.805,6.029,0.016,-0.028,0.0,104.0,106.0,102.0,13.4,1505.3,323.8,-0.7,1.9,2470.47,13.32,0.032,150.3
2020-02-10T08:25:03,42.805,6.029,0.008,-0.009,-0.005,106.0,107.0,103.0,13.3,1505.3,328.2,-0.7,1.8,2470.46,13.32,0.012,138.4
2020-02-10T08:28:03,42.805,6.029,0.008,-0.026,-0.036,104.0,108.0,100.0,13.3,1505.3,325.0,-0.7,1.9,2470.5,13.32,0.027,162.9
2020-02-10T08:31:03,42.805,6.029,-0.018,-0.016,0.0,104.0,105.0,101.0,13.4,1505.3,323.6,-0.7,1.8,2470.467,13.32,0.024,228.4
2020-02-10T08:34:03,42.805,6.029,-0.03,-0.025,-0.054,105.0,107.0,101.0,13.3,1505.3,326.5,-0.7,1.8,2470.478,13.33,0.039,230.2
2020-02-10T08:37:03,42.805,6.029,0.006,-0.014,-0.021,106.0,106.0,101.0,13.4,1505.3,326.5,-0.7,1.8,2470.422,13.33,0.015,156.8
2020-02-10T08:40:03,42.805,6.029,-0.031,-0.026,-0.068,104.0,107.0,101.0,13.3,1505.3,323.2,-0.7,1.8,2470.483,13.33,0.04,230.0
2020-02-10T08:43:03,42.805,6.029,0.004,-0.003,-0.014,103.0,107.0,101.0,13.4,1505.3,323.7,-0.7,1.8,2470.419,13.33,0.005,126.9
2020-02-10T08:46:03,42.805,6.029,-0.018,-0.02,-0.035,104.0,106.0,102.0,13.3,1505.3,328.0,-0.7,1.8,2470.447,13.33,0.026,222.0
2020-02-10T08:49:03,42.805,6.029,-0.009,0.004,-0.036,104.0,107.0,101.0,13.3,1505.3,326.0,-0.7,1.8,2470.441,13.33,0.009,294.0
2020-02-10T08:52:03,42.805,6.029,-0.018,-0.014,-0.004,104.0,106.0,101.0,13.3,1505.3,324.3,-0.7,1.8,2470.469,13.33,0.022,232.1
2020-02-10T08:55:03,42.805,6.029,-0.026,-0.021,-0.06,105.0,104.0,103.0,13.4,1505.3,326.5,-0.7,1.8,2470.42,13.33,0.033,231.1
2020-02-10T08:58:03,42.805,6.029,-0.019,-0.013,-0.051,103.0,106.0,102.0,13.3,1505.3,326.1,-0.7,1.8,2470.445,13.33,0.023,235.6
2020-02-10T09:04:03,42.805,6.029,0.011,-0.014,-0.026,103.0,106.0,101.0,13.4,1505.3,327.7,-0.7,1.8,2470.528,13.31,0.017,141.8
2020-02-10T09:07:03,42.805,6.029,-0.006,-0.001,-0.032,103.0,105.0,101.0,13.3,1505.3,326.0,-0.7,1.8,2470.436,13.31,0.006,260.5
2020-02-10T09:10:03,42.805,6.029,0.004,-0.021,-0.023,105.0,103.0,102.0,13.3,1505.3,323.2,-0.7,1.9,2470.442,13.32,0.021,169.2
2020-02-10T09:13:03,42.805,6.029,0.0,0.003,-0.013,104.0,106.0,101.0,13.4,1505.3,325.2,-0.7,1.9,2470.468,13.32,0.003,0.0
2020-02-10T09:16:03,42.805,6.029,0.023,-0.009,-0.023,103.0,104.0,101.0,13.4,1505.3,324.5,-0.7,1.8,2470.456,13.32,0.024,111.4
2020-02-10T09:19:03,42.805,6.029,0.008,-0.004,-0.029,102.0,105.0,100.0,13.4,1505.3,328.6,-0.7,1.8,2470.455,13.32,0.008,116.6
2020-02-10T09:22:03,42.805,6.029,-0.005,-0.013,-0.041,105.0,106.0,101.0,13.3,1505.3,328.1,-0.7,1.8,2470.462,13.32,0.013,201.0
2020-02-10T09:25:03,42.805,6.029,-0.005,-0.008,-0.042,103.0,105.0,101.0,13.4,1505.3,325.6,-0.7,1.8,2470.443,13.33,0.009,212.0
2020-02-10T09:28:03,42.805,6.029,-0.006,-0.001,-0.039,105.0,106.0,101.0,13.4,1505.3,326.3,-0.7,1.8,2470.449,13.33,0.006,260.5
2020-02-10T09:31:03,42.805,6.029,0.007,-0.02,-0.024,104.0,105.0,102.0,13.3,1505.3,324.6,-0.7,1.8,2470.405,13.33,0.021,160.7
2020-02-10T09:34:03,42.805,6.029,-0.005,0.002,-0.035,102.0,106.0,102.0,13.4,1505.3,325.7,-0.7,1.8,2470.427,13.33,0.005,291.8
2020-02-10T09:37:03,42.805,6.029,-0.014,-0.035,-0.013,104.0,105.0,101.0,13.4,1505.3,326.1,-0.7,1.8,2470.456,13.33,0.037,201.8
2020-02-10T09:40:03,42.805,6.029,0.02,-0.031,-0.04,103.0,106.0,101.0,13.3,1505.3,328.1,-0.7,1.8,2470.45,13.33,0.036,147.2
2020-02-10T09:43:03,42.805,6.029,-0.016,-0.021,-0.085,103.0,106.0,101.0,13.4,1505.3,323.7,-0.7,1.8,2470.449,13.33,0.026,217.3
2020-02-10T09:46:03,42.805,6.029,0.001,-0.012,-0.03,105.0,105.0,101.0,13.3,1505.3,324.4,-0.7,1.8,2470.406,13.33,0.012,175.2
2020-02-10T09:49:03,42.805,6.029,-0.008,-0.028,-0.054,104.0,106.0,101.0,13.3,1505.3,328.5,-0.7,1.8,2470.41,13.33,0.029,195.9
2020-02-10T09:52:03,42.805,6.029,-0.015,-0.01,-0.011,104.0,106.0,102.0,13.3,1505.3,325.3,-0.7,1.8,2470.399,13.33,0.018,236.3
2020-02-10T09:55:03,42.805,6.029,0.008,0.001,-0.004,104.0,106.0,101.0,13.3,1505.3,325.2,-0.7,1.8,2470.416,13.33,0.008,82.9